Regional Weather Roundup
Issued by NWS

Home | Current Version | Previous Version | Graphics & Text | Print | Product List | Glossary On
Versions: 1 2 3 4 5 6 7 8 9 10 11 12 13 14 15 16 17 18 19 20 21 22 23 24 25 26 27 28 29 30 31 32 33 34 35 36 37 38 39 40 41 42 43 44 45 46 47 48 49 50
000
ASUS43 KLMK 172010
RWRKY
KENTUCKY REGIONAL WEATHER ROUNDUP
NATIONAL WEATHER SERVICE LOUISVILLE KY
300 PM EST TUE JAN 17 2017

NOTE "FAIR" INDICATES FEW OR NO CLOUDS BELOW 12,000 FEET
WITH NO SIGNIFICANT WEATHER AND/OR OBSTRUCTIONS TO VISIBILITY.

KYZ001>023-026-027-061>063-070>075-172100-
WESTERN AND SOUTH CENTRAL KENTUCKY

CITY           SKY/WX    TMP DP  RH WIND       PRES   REMARKS
PADUCAH        CLOUDY    48  40  73 W15       30.04S
HENDERSON      CLOUDY    48  41  76 W14       30.00S
OWENSBORO      CLOUDY    52  46  80 NW13      30.01R
HOPKINSVILLE   CLOUDY    58  49  70 SW16      30.00F
BOWLING GREEN  MOSUNNY   62  48  60 SW14G24   29.98F
GLASGOW        CLOUDY    60  53  76 SW15G22   29.98S
$$

KYZ024-025-028>034-038-045-046-053-172100-
NORTH CENTRAL KENTUCKY

CITY           SKY/WX    TMP DP  RH WIND       PRES   REMARKS
LOUISVILLE/SDF CLOUDY    58  47  66 W21G26    29.94S
LOUISVILLE/LOU PTSUNNY   59  47  64 W16G22    29.94F
FORT KNOX      MOSUNNY   59  49  68 SW15      29.93F
$$

KYZ035>037-039>044-047>052-055>060-089>105-172100-
NORTHEAST KENTUCKY

CITY           SKY/WX    TMP DP  RH WIND       PRES   REMARKS
LEXINGTON      CLOUDY    63  50  62 SW16      29.92S
COVINGTON      CLOUDY    57  48  72 W14G23    29.90R
FRANKFORT      CLOUDY    63  50  62 W10G18    29.91S
$$

KYZ054-064>069-076>088-106>120-172100-
SOUTHEAST KENTUCKY

CITY           SKY/WX    TMP DP  RH WIND       PRES   REMARKS
JACKSON        CLOUDY    61  57  87 MISG      29.96F
LONDON         LGT RAIN  59  56  89 SW10      29.97F FOG
SOMERSET       CLOUDY    61  61 100 SW5       29.98F
MIDDLESBORO    RAIN      60  58  91 SW10      30.02F
MONTICELLO     CLOUDY    62  60  93 W16       30.00F
$$





USA.gov is the U.S. government's official web portal to all federal, state and local government web resources and services.